NRAXV EBBR-EBOS

Flight info

Callsign NRAXV
Flight time 0h 31m
Altitude 6000
Route DENUT
Aircraft DA62/L-SDFGRY/C

Departure

Time 2026-05-07 15:41
Airport Brussels Airport (EBBR)

Arrival

Time 2026-05-07 16:12
Airport Ostend-Bruges International Airport (EBOS)
Time Latitude Longitude Altitude Speed Heading
2026-05-07 15:23 50.89759 4.47236 138 ft 0 kts 335°
2026-05-07 15:33 50.89782 4.47253 138 ft 5 kts 64°
2026-05-07 15:34 50.89805 4.47293 138 ft 5 kts 357°
2026-05-07 15:34 50.89836 4.47271 138 ft 6 kts 335°
2026-05-07 15:34 50.89875 4.47322 138 ft 13 kts 68°
2026-05-07 15:34 50.89928 4.47503 138 ft 23 kts 67°
2026-05-07 15:35 50.90025 4.47581 138 ft 15 kts 328°
2026-05-07 15:35 50.90117 4.47514 138 ft 14 kts 336°
2026-05-07 15:35 50.90173 4.47471 138 ft 0 kts 334°
2026-05-07 15:36 50.90176 4.47470 138 ft 3 kts 334°
2026-05-07 15:36 50.90250 4.47439 137 ft 14 kts 27°
2026-05-07 15:36 50.90289 4.47564 137 ft 12 kts 63°
2026-05-07 15:37 50.90328 4.47698 137 ft 16 kts 65°
2026-05-07 15:37 50.90385 4.47898 137 ft 24 kts 65°
2026-05-07 15:37 50.90465 4.48169 137 ft 30 kts 64°
2026-05-07 15:37 50.90542 4.48432 137 ft 16 kts 63°
2026-05-07 15:38 50.90613 4.48431 134 ft 13 kts 291°
2026-05-07 15:38 50.90674 4.48296 127 ft 14 kts 294°
2026-05-07 15:38 50.90667 4.48251 125 ft 0 kts 247°
2026-05-07 15:40 50.90635 4.48141 125 ft 40 kts 246°
2026-05-07 15:40 50.90433 4.47445 125 ft 94 kts 245°
2026-05-07 15:40 50.90127 4.46421 302 ft 106 kts 244°
2026-05-07 15:40 50.89796 4.45355 595 ft 109 kts 243°
2026-05-07 15:41 50.89437 4.44276 914 ft 112 kts 251°
2026-05-07 15:41 50.89647 4.43202 1285 ft 107 kts 320°
2026-05-07 15:41 50.90096 4.42265 1624 ft 109 kts 299°
2026-05-07 15:41 50.90481 4.41220 1936 ft 115 kts 300°
2026-05-07 15:42 50.90889 4.40059 2201 ft 125 kts 299°
2026-05-07 15:42 50.91299 4.38851 2630 ft 124 kts 299°
2026-05-07 15:42 50.91655 4.37606 3008 ft 126 kts 281°
2026-05-07 15:42 50.91764 4.36228 3393 ft 126 kts 279°
2026-05-07 15:43 50.91890 4.34847 3770 ft 127 kts 278°
2026-05-07 15:43 50.92015 4.33455 4149 ft 128 kts 278°
2026-05-07 15:43 50.92140 4.32053 4538 ft 129 kts 278°
2026-05-07 15:43 50.92265 4.30644 4929 ft 130 kts 278°
2026-05-07 15:44 50.92394 4.29228 5324 ft 129 kts 278°
2026-05-07 15:44 50.92526 4.27819 5721 ft 129 kts 277°
2026-05-07 15:44 50.92663 4.26390 5985 ft 140 kts 277°
2026-05-07 15:44 50.92827 4.24735 5994 ft 162 kts 278°
2026-05-07 15:45 50.93014 4.22898 5998 ft 175 kts 278°
2026-05-07 15:45 50.93296 4.20979 5994 ft 184 kts 295°
2026-05-07 15:45 50.94190 4.19515 5990 ft 189 kts 323°
2026-05-07 15:45 50.95174 4.18161 5991 ft 191 kts 314°
2026-05-07 15:46 50.96832 4.14839 5985 ft 192 kts 291°
2026-05-07 15:46 50.97233 4.12816 5983 ft 192 kts 284°
2026-05-07 15:46 50.97602 4.10856 5978 ft 180 kts 287°
2026-05-07 15:47 50.97997 4.09057 6024 ft 169 kts 289°
2026-05-07 15:47 50.98400 4.07302 6067 ft 174 kts 289°
2026-05-07 15:47 50.98825 4.05453 6070 ft 182 kts 289°
2026-05-07 15:47 50.99263 4.03534 6069 ft 187 kts 289°
2026-05-07 15:48 50.99710 4.01576 6069 ft 190 kts 289°
2026-05-07 15:48 51.00160 3.99600 6070 ft 191 kts 289°
2026-05-07 15:48 51.00613 3.97607 6070 ft 192 kts 289°
2026-05-07 15:48 51.01067 3.95606 6065 ft 193 kts 289°
2026-05-07 15:49 51.01521 3.93605 6061 ft 193 kts 289°
2026-05-07 15:49 51.01976 3.91598 6062 ft 193 kts 289°
2026-05-07 15:49 51.02431 3.89590 6062 ft 193 kts 289°
2026-05-07 15:49 51.02885 3.87584 6062 ft 193 kts 289°
2026-05-07 15:50 51.03338 3.85577 6062 ft 193 kts 289°
2026-05-07 15:50 51.03793 3.83566 6062 ft 193 kts 289°
2026-05-07 15:50 51.04247 3.81553 6062 ft 193 kts 289°
2026-05-07 15:50 51.04700 3.79541 6062 ft 193 kts 289°
2026-05-07 15:51 51.05153 3.77529 6062 ft 194 kts 288°
2026-05-07 15:51 51.05608 3.75513 6062 ft 194 kts 288°
2026-05-07 15:51 51.06060 3.73498 6063 ft 193 kts 288°
2026-05-07 15:51 51.06512 3.71488 6062 ft 193 kts 288°
2026-05-07 15:52 51.06963 3.69477 6062 ft 193 kts 288°
2026-05-07 15:52 51.07496 3.67512 6061 ft 194 kts 297°
2026-05-07 15:52 51.07937 3.66275 6060 ft 194 kts 299°
2026-05-07 15:52 51.08600 3.64400 6061 ft 194 kts 297°
2026-05-07 15:53 51.09230 3.62502 6061 ft 194 kts 296°
2026-05-07 15:53 51.09852 3.60596 6060 ft 194 kts 296°
2026-05-07 15:53 51.10475 3.58694 6063 ft 194 kts 297°
2026-05-07 15:53 51.11099 3.56791 6063 ft 194 kts 297°
2026-05-07 15:54 51.11723 3.54891 6060 ft 194 kts 297°
2026-05-07 15:54 51.12349 3.52980 6060 ft 194 kts 296°
2026-05-07 15:54 51.12971 3.51079 6060 ft 194 kts 296°
2026-05-07 15:54 51.13595 3.49172 6060 ft 194 kts 296°
2026-05-07 15:55 51.14210 3.47290 6062 ft 194 kts 296°
2026-05-07 15:55 51.14835 3.45375 6062 ft 195 kts 296°
2026-05-07 15:55 51.15468 3.43447 6055 ft 198 kts 297°
2026-05-07 15:55 51.16101 3.41500 6055 ft 197 kts 296°
2026-05-07 15:56 51.16727 3.39565 6057 ft 196 kts 296°
2026-05-07 15:56 51.17354 3.37649 6058 ft 195 kts 296°
2026-05-07 15:56 51.17978 3.35733 6058 ft 194 kts 296°
2026-05-07 15:56 51.18599 3.33823 6059 ft 194 kts 296°
2026-05-07 15:57 51.19221 3.31910 6060 ft 194 kts 295°
2026-05-07 15:57 51.19843 3.29994 6061 ft 195 kts 295°
2026-05-07 15:57 51.20468 3.28065 6060 ft 196 kts 296°
2026-05-07 15:57 51.21093 3.26136 6061 ft 196 kts 296°
2026-05-07 15:58 51.21719 3.24206 6062 ft 196 kts 295°
2026-05-07 15:58 51.22343 3.22274 6064 ft 196 kts 295°
2026-05-07 15:58 51.22969 3.20339 6066 ft 196 kts 296°
2026-05-07 15:58 51.23597 3.18398 6066 ft 197 kts 295°
2026-05-07 15:59 51.24212 3.16446 6064 ft 197 kts 290°
2026-05-07 15:59 51.24286 3.14334 6061 ft 192 kts 253°
2026-05-07 15:59 51.23800 3.12365 6064 ft 191 kts 248°
2026-05-07 15:59 51.23404 3.10338 6065 ft 191 kts 252°
2026-05-07 16:00 51.23091 3.08276 6063 ft 192 kts 255°
2026-05-07 16:00 51.22798 3.06198 6063 ft 193 kts 258°
2026-05-07 16:00 51.22850 3.04064 6065 ft 195 kts 281°
2026-05-07 16:00 51.23403 3.02097 6066 ft 197 kts 303°
2026-05-07 16:01 51.24387 3.00589 6067 ft 198 kts 326°
2026-05-07 16:01 51.25664 2.99766 6069 ft 199 kts 346°
2026-05-07 16:01 51.27012 2.99235 6066 ft 200 kts 341°
2026-05-07 16:01 51.28199 2.98111 6065 ft 199 kts 317°
2026-05-07 16:02 51.29030 2.96370 6063 ft 197 kts 295°
2026-05-07 16:02 51.29402 2.94314 5894 ft 187 kts 274°
2026-05-07 16:02 51.29287 2.92230 5175 ft 191 kts 254°
2026-05-07 16:02 51.28969 2.90210 4564 ft 190 kts 253°
2026-05-07 16:03 51.28656 2.88159 3918 ft 190 kts 254°
2026-05-07 16:03 51.28352 2.86109 3315 ft 189 kts 256°
2026-05-07 16:03 51.28048 2.84064 2999 ft 176 kts 255°
2026-05-07 16:03 51.27792 2.82319 2985 ft 154 kts 254°
2026-05-07 16:04 51.27556 2.80768 2970 ft 135 kts 254°
2026-05-07 16:04 51.27350 2.79397 2950 ft 121 kts 253°
2026-05-07 16:04 51.27151 2.78073 2796 ft 122 kts 254°
2026-05-07 16:04 51.26954 2.76765 2645 ft 121 kts 255°
2026-05-07 16:05 51.26759 2.75467 2496 ft 120 kts 255°
2026-05-07 16:05 51.26564 2.74172 2340 ft 120 kts 255°
2026-05-07 16:05 51.26367 2.72860 2106 ft 125 kts 255°
2026-05-07 16:05 51.26134 2.71506 1892 ft 126 kts 242°
2026-05-07 16:06 51.25463 2.70729 1653 ft 121 kts 192°
2026-05-07 16:06 51.24657 2.70829 1483 ft 110 kts 154°
2026-05-07 16:06 51.24039 2.71338 1473 ft 91 kts 150°
2026-05-07 16:06 51.23510 2.71762 1469 ft 80 kts 151°
2026-05-07 16:07 51.23034 2.72141 1467 ft 76 kts 151°
2026-05-07 16:07 51.22556 2.72509 1443 ft 75 kts 148°
2026-05-07 16:07 51.22076 2.72879 1393 ft 79 kts 150°
2026-05-07 16:07 51.21571 2.73265 1331 ft 81 kts 148°
2026-05-07 16:08 51.21068 2.73654 1287 ft 79 kts 148°
2026-05-07 16:08 51.20580 2.74028 1289 ft 77 kts 148°
2026-05-07 16:08 51.20092 2.74398 1287 ft 78 kts 148°
2026-05-07 16:08 51.19611 2.74769 1280 ft 76 kts 150°
2026-05-07 16:09 51.19148 2.75123 1274 ft 72 kts 147°
2026-05-07 16:09 51.18710 2.75459 1292 ft 72 kts 150°
2026-05-07 16:09 51.18370 2.76083 1304 ft 82 kts 102°
2026-05-07 16:09 51.18416 2.77028 1294 ft 91 kts 73°
2026-05-07 16:10 51.18570 2.78053 1297 ft 98 kts 77°
2026-05-07 16:10 51.18732 2.79119 1283 ft 95 kts 76°
2026-05-07 16:10 51.18882 2.80111 992 ft 92 kts 75°
2026-05-07 16:10 51.19032 2.81116 582 ft 93 kts 73°
2026-05-07 16:11 51.19156 2.82071 401 ft 80 kts 76°
2026-05-07 16:11 51.19285 2.82942 258 ft 76 kts 73°
2026-05-07 16:11 51.19425 2.83789 226 ft 86 kts 69°
2026-05-07 16:11 51.19587 2.84782 113 ft 92 kts 75°
2026-05-07 16:12 51.19716 2.85666 28 ft 74 kts 72°
2026-05-07 16:12 51.19823 2.86351 17 ft 50 kts 77°
2026-05-07 16:12 51.19934 2.86652 17 ft 25 kts 14°
2026-05-07 16:12 51.20056 2.86683 17 ft 12 kts
2026-05-07 16:13 51.20133 2.86694 17 ft 10 kts
2026-05-07 16:13 51.20197 2.86713 17 ft 9 kts 26°
2026-05-07 16:13 51.20209 2.86782 17 ft 7 kts 134°
2026-05-07 16:13 51.20151 2.86812 17 ft 7 kts 166°
2026-05-07 16:14 51.20145 2.86814 17 ft 0 kts 167°